SAUDISAT 5B

Last updated on Mon Sep 15 2025 00:02:31 GMT+0000 (Coordinated Universal Time)

1 43833U 18102C 25257.29455156 .00003974 00000+0 16444-3 0 9995 2 43833 97.3569 321.8258 0012061 39.5385 320.6730 15.24462594373707
UTC large
Height (km)
Speed (km/s)
/
Latitude / Longitude
Inclination (degrees)
Orbital Period (minutes)
Azimuth
Elevation
Range (km)
Doppler Factor

Next 0 passes for location: London (51.5072 / 0.1276)

Sorry there are no passes over London.